Find Starlink 2598

NORAD ID: 48385 Int'l Des: 2021-038 Owner: SPXS Country: US Constellation: starlink operational
LEOCIRCULAR

Live Position

Loading 3D Globe...

About Starlink 2598

Description loading...

Upcoming Passes

Passes for default location (London). Set your location on the main map for personalized predictions.

Altitude History

Loading altitude history...

Two-Line Element Set

1 48385U 21038AJ 26103.94617388 -.00000658 00000-0 -10091-4 0 9996
2 48385 53.1596 181.5971 0001696 80.2189 279.9003 15.30208016273885
Epoch: Apr 13, 2026 • Age: 9 hours

Current Status

Altitude 491.4 km
Velocity 7.62 km/s
Sub-Earth Point -45.01°S, 171.47°E
Launch Date May 4, 2021
Age 4.9 years
Type internet

Technical Details

Classification Payload
Mass 260.00 kg
Dry Mass 248.00 kg
Total Mass 260.00 kg
Length 0.20 m
Diameter 2.80 m
Span 9.00 m
Shape Box + pan
Manufacturer SPXS
Bus Type Starlink
Phase Status In Orbit
Owner/State SPXS/US

Most Searched